| time (UTC) | temp F | wind direction | speed MPH | gust MPH | rain 1hr in | rain 24hr in | rain mn in | humidity % | barometer mb |
| 20260509132016 | 46 | 0.0 | 2.0 | 0.01 | 0.01 | 0.01 | 85 | 1014.6 | |
| 20260509131016 | 46 | 0.0 | 2.0 | 0.01 | 0.01 | 0.01 | 85 | 1014.7 | |
| 20260509130016 | 45 | 0.0 | 2.0 | 0.00 | 0.00 | 0.00 | 84 | 1014.8 | |
| 20260509125016 | 45 | 0.0 | 2.0 | 0.00 | 0.00 | 0.00 | 82 | 1014.8 | |
| 20260509124016 | 45 | 158 | 2.0 | 6.0 | 0.00 | 0.00 | 0.00 | 81 | 1014.9 |
| 20260509123016 | 45 | 180 | 1.0 | 3.0 | 0.00 | 0.00 | 0.00 | 80 | 1015.1 |
| 20260509122016 | 45 | 0.0 | 2.0 | 0.00 | 0.00 | 0.00 | 79 | 1014.9 | |
| 20260509121016 | 45 | 0.0 | 2.0 | 0.00 | 0.00 | 0.00 | 79 | 1015.0 | |
| 20260509120016 | 44 | 0.0 | 0.0 | 0.00 | 0.00 | 0.00 | 80 | 1015.0 | |
| 20260509115016 | 43 | 0.0 | 3.0 | 0.00 | 0.00 | 0.00 | 81 | 1015.1 | |
| 20260509114016 | 43 | 180 | 1.0 | 3.0 | 0.00 | 0.00 | 0.00 | 83 | 1015.3 |
| 20260509113016 | 42 | 180 | 2.0 | 4.0 | 0.00 | 0.00 | 0.00 | 85 | 1015.1 |
| 20260509112016 | 41 | 0.0 | 3.0 | 0.00 | 0.00 | 0.00 | 87 | 1014.9 | |
| 20260509111016 | 40 | 0.0 | 3.0 | 0.00 | 0.00 | 0.00 | 87 | 1015.0 | |
| 20260509110016 | 40 | 0.0 | 1.0 | 0.00 | 0.00 | 0.00 | 88 | 1014.9 | |
| 20260509105016 | 39 | 0.0 | 0.0 | 0.00 | 0.00 | 0.00 | 88 | 1015.0 | |
| 20260509104016 | 39 | 0.0 | 0.0 | 0.00 | 0.00 | 0.00 | 88 | 1015.0 | |
| 20260509103016 | 39 | 0.0 | 0.0 | 0.00 | 0.00 | 0.00 | 88 | 1014.9 | |
| 20260509102016 | 38 | 0.0 | 0.0 | 0.00 | 0.00 | 0.00 | 87 | 1015.0 | |
| 20260509101016 | 38 | 0.0 | 0.0 | 0.00 | 0.00 | 0.00 | 87 | 1014.6 | |
| 20260509100016 | 38 | 0.0 | 0.0 | 0.00 | 0.00 | 0.00 | 86 | 1014.7 | |
| 20260509095016 | 38 | 0.0 | 0.0 | 0.00 | 0.00 | 0.00 | 86 | 1014.4 | |
| 20260509094016 | 38 | 0.0 | 0.0 | 0.00 | 0.00 | 0.00 | 86 | 1014.4 | |
| 20260509093016 | 38 | 0.0 | 0.0 | 0.00 | 0.00 | 0.00 | 86 | 1014.2 | |
| 20260509092016 | 38 | 0.0 | 0.0 | 0.00 | 0.00 | 0.00 | 86 | 1014.1 | |
| 20260509091036 | 38 | 0.0 | 0.0 | 0.00 | 0.00 | 0.00 | 85 | 1014.1 | |
| 20260509090016 | 38 | 0.0 | 1.0 | 0.00 | 0.00 | 0.00 | 85 | 1014.0 | |
| 20260509085016 | 38 | 0.0 | 0.0 | 0.00 | 0.00 | 0.00 | 84 | 1014.1 | |
| 20260509084016 | 39 | 0.0 | 0.0 | 0.00 | 0.00 | 0.00 | 83 | 1014.0 | |
| 20260509083016 | 39 | 0.0 | 0.0 | 0.00 | 0.00 | 0.00 | 83 | 1013.8 | |
| 20260509082036 | 39 | 0.0 | 0.0 | 0.00 | 0.00 | 0.00 | 83 | 1013.8 | |
| 20260509081016 | 39 | 0.0 | 1.0 | 0.00 | 0.00 | 0.00 | 82 | 1014.0 | |
| 20260509080056 | 39 | 0.0 | 2.0 | 0.00 | 0.00 | 0.00 | 82 | 1014.1 | |
| 20260509075016 | 39 | 203 | 1.0 | 3.0 | 0.00 | 0.00 | 0.00 | 81 | 1014.2 |
| 20260509074016 | 40 | 0.0 | 3.0 | 0.00 | 0.00 | 0.00 | 80 | 1014.0 | |
| 20260509073016 | 40 | 0.0 | 0.0 | 0.00 | 0.00 | 0.00 | 79 | 1013.8 | |
| 20260509072016 | 40 | 0.0 | 0.0 | 0.00 | 0.00 | 0.00 | 78 | 1013.9 | |
| 20260509071016 | 41 | 0.0 | 0.0 | 0.00 | 0.00 | 0.00 | 78 | 1013.8 | |
| 20260509070015 | 41 | 0.0 | 0.0 | 0.00 | 0.00 | 0.00 | 77 | 1013.8 | |
| 20260509065036 | 41 | 0.0 | 0.0 | 0.00 | 0.00 | 0.00 | 75 | 1013.8 | |
| 20260509064016 | 42 | 0.0 | 0.0 | 0.00 | 0.00 | 0.00 | 75 | 1013.7 | |
| 20260509063036 | 42 | 0.0 | 0.0 | 0.00 | 0.00 | 0.00 | 75 | 1013.6 | |
| 20260509062016 | 42 | 0.0 | 0.0 | 0.00 | 0.00 | 0.00 | 74 | 1013.6 | |
| 20260509061036 | 42 | 0.0 | 0.0 | 0.00 | 0.00 | 0.00 | 73 | 1013.7 | |
| 20260509060016 | 43 | 0.0 | 0.0 | 0.00 | 0.00 | 0.00 | 72 | 1013.7 | |
| 20260509055016 | 43 | 0.0 | 0.0 | 0.00 | 0.00 | 0.00 | 70 | 1013.7 | |
| 20260509054016 | 44 | 0.0 | 0.0 | 0.00 | 0.00 | 0.00 | 69 | 1013.9 | |
| 20260509053015 | 44 | 0.0 | 0.0 | 0.00 | 0.00 | 0.00 | 68 | 1013.8 | |
| 20260509052036 | 44 | 0.0 | 0.0 | 0.00 | 0.00 | 0.00 | 67 | 1013.6 | |
| 20260509051015 | 45 | 0.0 | 0.0 | 0.00 | 0.00 | 0.00 | 67 | 1013.6 | |
| 20260509050016 | 45 | 0.0 | 0.0 | 0.00 | 0.00 | 0.00 | 66 | 1013.6 | |
| 20260509045015 | 45 | 0.0 | 0.0 | 0.00 | 0.00 | 0.00 | 65 | 1013.6 | |
| 20260509044015 | 45 | 0.0 | 0.0 | 0.00 | 0.00 | 0.00 | 65 | 1013.6 | |
| 20260509043016 | 46 | 0.0 | 0.0 | 0.00 | 0.00 | 0.00 | 64 | 1013.6 | |
| 20260509042015 | 46 | 0.0 | 0.0 | 0.00 | 0.00 | 0.00 | 63 | 1013.5 | |
| 20260509041016 | 46 | 0.0 | 0.0 | 0.00 | 0.00 | 0.00 | 63 | 1013.4 | |
| 20260509040016 | 46 | 0.0 | 1.0 | 0.00 | 0.00 | 0.00 | 62 | 1013.2 | |
| 20260509035016 | 47 | 0.0 | 1.0 | 0.00 | 0.00 | 0.00 | 62 | 1013.2 | |
| 20260509034016 | 47 | 0.0 | 3.0 | 0.00 | 0.00 | 0.00 | 62 | 1013.2 | |
| 20260509033016 | 47 | 0.0 | 2.0 | 0.00 | 0.00 | 0.00 | 61 | 1013.2 | |
| 20260509032036 | 47 | 0.0 | 1.0 | 0.00 | 0.00 | 0.00 | 60 | 1013.1 | |
| 20260509031016 | 48 | 0.0 | 2.0 | 0.00 | 0.00 | 0.00 | 59 | 1013.0 | |
| 20260509030017 | 48 | 0.0 | 1.0 | 0.00 | 0.00 | 0.00 | 59 | 1012.9 | |
| 20260509025016 | 48 | 0.0 | 2.0 | 0.00 | 0.00 | 0.00 | 58 | 1012.9 | |
| 20260509024015 | 48 | 0.0 | 2.0 | 0.00 | 0.00 | 0.00 | 57 | 1012.9 | |
| 20260509023016 | 49 | 0.0 | 2.0 | 0.00 | 0.00 | 0.00 | 56 | 1012.9 | |
| 20260509022016 | 49 | 0.0 | 2.0 | 0.00 | 0.00 | 0.00 | 55 | 1012.9 | |
| 20260509021016 | 49 | 0.0 | 1.0 | 0.00 | 0.00 | 0.00 | 54 | 1012.6 | |
| 20260509020016 | 50 | 0.0 | 2.0 | 0.00 | 0.00 | 0.00 | 54 | 1012.4 | |
| 20260509015016 | 50 | 0.0 | 1.0 | 0.00 | 0.00 | 0.00 | 53 | 1012.3 | |
| 20260509014036 | 51 | 0.0 | 2.0 | 0.00 | 0.00 | 0.00 | 51 | 1012.3 | |
| 20260509013016 | 51 | 0.0 | 1.0 | 0.00 | 0.00 | 0.00 | 50 | 1012.1 | |
| 20260509012016 | 51 | 0.0 | 2.0 | 0.00 | 0.00 | 0.00 | 49 | 1012.0 | |
| 20260509011016 | 52 | 0.0 | 1.0 | 0.00 | 0.00 | 0.00 | 48 | 1011.7 | |
| 20260509010016 | 52 | 0.0 | 4.0 | 0.00 | 0.00 | 0.00 | 47 | 1011.5 | |
| 20260509005015 | 53 | 0.0 | 5.0 | 0.00 | 0.00 | 0.00 | 46 | 1011.3 | |
| 20260509004015 | 53 | 315 | 2.0 | 6.0 | 0.00 | 0.00 | 0.00 | 45 | 1011.0 |
| 20260509003015 | 54 | 315 | 1.0 | 4.0 | 0.00 | 0.00 | 0.00 | 44 | 1010.8 |
| 20260509002016 | 54 | 315 | 2.0 | 5.0 | 0.00 | 0.00 | 0.00 | 43 | 1010.6 |
| 20260509001016 | 54 | 315 | 2.0 | 7.0 | 0.00 | 0.00 | 0.00 | 42 | 1010.5 |
| 20260509000036 | 55 | 315 | 3.0 | 8.0 | 0.00 | 0.00 | 0.00 | 40 | 1010.2 |
| 20260508235035 | 55 | 270 | 3.0 | 8.0 | 0.00 | 0.00 | 0.00 | 39 | 1010.0 |
| 20260508234016 | 56 | 315 | 4.0 | 10.0 | 0.00 | 0.00 | 0.00 | 38 | 1009.8 |
| 20260508233015 | 56 | 315 | 3.0 | 9.0 | 0.00 | 0.00 | 0.00 | 37 | 1009.6 |
| 20260508232015 | 56 | 315 | 4.0 | 12.0 | 0.00 | 0.00 | 0.00 | 36 | 1009.4 |
| 20260508231015 | 56 | 293 | 3.0 | 10.0 | 0.00 | 0.00 | 0.00 | 37 | 1009.3 |
| 20260508230015 | 57 | 293 | 2.0 | 5.0 | 0.00 | 0.00 | 0.00 | 38 | 1009.2 |
| 20260508225015 | 57 | 203 | 3.0 | 7.0 | 0.00 | 0.00 | 0.00 | 37 | 1009.1 |
| 20260508224015 | 57 | 270 | 3.0 | 7.0 | 0.00 | 0.00 | 0.00 | 37 | 1009.1 |
| 20260508223015 | 57 | 225 | 2.0 | 6.0 | 0.00 | 0.00 | 0.00 | 37 | 1009.0 |
| 20260508222015 | 57 | 270 | 3.0 | 6.0 | 0.00 | 0.00 | 0.00 | 37 | 1009.1 |
| 20260508221036 | 58 | 315 | 5.0 | 11.0 | 0.00 | 0.00 | 0.00 | 37 | 1009.0 |
| 20260508220015 | 58 | 270 | 4.0 | 12.0 | 0.00 | 0.00 | 0.00 | 35 | 1008.9 |
| 20260508215015 | 58 | 225 | 3.0 | 8.0 | 0.00 | 0.00 | 0.00 | 35 | 1008.9 |
| 20260508214015 | 58 | 248 | 2.0 | 9.0 | 0.00 | 0.00 | 0.00 | 36 | 1008.8 |
| 20260508213137 | 58 | 248 | 3.0 | 8.0 | 0.00 | 0.00 | 0.00 | 35 | 1008.8 |
| 20260508212017 | 58 | 225 | 3.0 | 8.0 | 0.00 | 0.00 | 0.00 | 36 | 1008.7 |
| 20260508211057 | 58 | 248 | 4.0 | 11.0 | 0.00 | 0.00 | 0.00 | 35 | 1008.7 |
| 20260508210057 | 59 | 248 | 4.0 | 10.0 | 0.00 | 0.00 | 0.00 | 34 | 1008.5 |
| 20260508205017 | 58 | 248 | 4.0 | 11.0 | 0.00 | 0.00 | 0.00 | 35 | 1008.6 |
| 20260508204017 | 59 | 315 | 3.0 | 8.0 | 0.00 | 0.00 | 0.00 | 35 | 1008.5 |
| 20260508203017 | 59 | 225 | 3.0 | 9.0 | 0.00 | 0.00 | 0.00 | 34 | 1008.6 |
| 20260508202017 | 59 | 315 | 5.0 | 15.0 | 0.00 | 0.00 | 0.00 | 34 | 1008.5 |
| 20260508201017 | 59 | 293 | 4.0 | 11.0 | 0.00 | 0.00 | 0.00 | 36 | 1008.4 |
| 20260508200058 | 60 | 293 | 5.0 | 13.0 | 0.00 | 0.00 | 0.00 | 34 | 1008.6 |
| 20260508195017 | 60 | 248 | 3.0 | 7.0 | 0.00 | 0.00 | 0.00 | 36 | 1008.4 |
| 20260508194058 | 59 | 315 | 5.0 | 12.0 | 0.00 | 0.00 | 0.00 | 36 | 1008.5 |
| 20260508193017 | 59 | 293 | 6.0 | 15.0 | 0.00 | 0.00 | 0.00 | 36 | 1008.6 |
| 20260508192017 | 59 | 293 | 5.0 | 15.0 | 0.00 | 0.00 | 0.00 | 35 | 1008.5 |
| 20260508191017 | 60 | 315 | 3.0 | 12.0 | 0.00 | 0.00 | 0.00 | 34 | 1008.5 |
| 20260508190017 | 59 | 248 | 5.0 | 12.0 | 0.00 | 0.00 | 0.00 | 35 | 1008.6 |
| 20260508185017 | 59 | 248 | 5.0 | 17.0 | 0.00 | 0.00 | 0.00 | 34 | 1008.4 |
| 20260508184017 | 59 | 338 | 5.0 | 12.0 | 0.00 | 0.00 | 0.00 | 34 | 1008.4 |
| 20260508183017 | 60 | 248 | 4.0 | 12.0 | 0.00 | 0.00 | 0.00 | 34 | 1008.5 |
| 20260508182017 | 59 | 225 | 5.0 | 14.0 | 0.00 | 0.00 | 0.00 | 36 | 1008.5 |
| 20260508181018 | 59 | 315 | 5.0 | 21.0 | 0.00 | 0.00 | 0.00 | 36 | 1008.5 |
| 20260508180017 | 60 | 315 | 5.0 | 12.0 | 0.00 | 0.00 | 0.00 | 35 | 1008.5 |
| 20260508175017 | 60 | 225 | 4.0 | 8.0 | 0.00 | 0.00 | 0.00 | 37 | 1008.5 |
| 20260508174017 | 59 | 293 | 4.0 | 10.0 | 0.00 | 0.00 | 0.00 | 37 | 1008.6 |
| 20260508173017 | 58 | 270 | 5.0 | 12.0 | 0.00 | 0.00 | 0.00 | 38 | 1008.6 |
| 20260508172017 | 57 | 248 | 4.0 | 10.0 | 0.00 | 0.00 | 0.00 | 39 | 1008.7 |
| 20260508171017 | 57 | 248 | 4.0 | 10.0 | 0.00 | 0.00 | 0.00 | 39 | 1008.6 |
| 20260508170017 | 57 | 225 | 4.0 | 11.0 | 0.00 | 0.00 | 0.00 | 39 | 1008.5 |
| 20260508165017 | 58 | 315 | 4.0 | 10.0 | 0.00 | 0.00 | 0.00 | 39 | 1008.6 |
| 20260508164017 | 58 | 248 | 5.0 | 12.0 | 0.00 | 0.00 | 0.00 | 37 | 1008.7 |
| 20260508163017 | 59 | 293 | 4.0 | 12.0 | 0.00 | 0.00 | 0.00 | 36 | 1008.6 |
| 20260508162017 | 61 | 248 | 4.0 | 9.0 | 0.00 | 0.00 | 0.00 | 37 | 1008.6 |
| 20260508161017 | 61 | 225 | 3.0 | 9.0 | 0.00 | 0.00 | 0.00 | 36 | 1008.6 |
| 20260508160017 | 59 | 0 | 3.0 | 8.0 | 0.00 | 0.00 | 0.00 | 39 | 1008.8 |
| 20260508155017 | 58 | 270 | 3.0 | 8.0 | 0.00 | 0.00 | 0.00 | 39 | 1009.0 |
| 20260508154017 | 58 | 270 | 5.0 | 10.0 | 0.00 | 0.00 | 0.00 | 37 | 1009.1 |
| 20260508153016 | 59 | 225 | 3.0 | 6.0 | 0.00 | 0.00 | 0.00 | 38 | 1009.1 |
| 20260508152017 | 58 | 270 | 3.0 | 9.0 | 0.00 | 0.00 | 0.00 | 38 | 1009.2 |
| 20260508151037 | 57 | 315 | 4.0 | 9.0 | 0.00 | 0.00 | 0.00 | 39 | 1009.2 |
| 20260508150017 | 56 | 315 | 4.0 | 11.0 | 0.00 | 0.00 | 0.00 | 39 | 1009.3 |
| 20260508145017 | 56 | 315 | 5.0 | 11.0 | 0.00 | 0.00 | 0.00 | 39 | 1009.3 |
| 20260508144017 | 55 | 315 | 4.0 | 9.0 | 0.00 | 0.00 | 0.00 | 40 | 1009.4 |
| 20260508143017 | 55 | 315 | 4.0 | 10.0 | 0.00 | 0.00 | 0.00 | 40 | 1009.5 |
| 20260508142016 | 55 | 315 | 3.0 | 10.0 | 0.00 | 0.00 | 0.00 | 40 | 1009.5 |
| 20260508141037 | 56 | 270 | 3.0 | 9.0 | 0.00 | 0.00 | 0.00 | 38 | 1009.6 |
| 20260508140017 | 55 | 225 | 3.0 | 10.0 | 0.00 | 0.00 | 0.00 | 40 | 1009.6 |
| 20260508135017 | 56 | 315 | 3.0 | 9.0 | 0.00 | 0.00 | 0.00 | 40 | 1009.7 |
| 20260508134016 | 56 | 23 | 3.0 | 12.0 | 0.00 | 0.00 | 0.00 | 40 | 1009.7 |
| 20260508133016 | 55 | 0 | 3.0 | 8.0 | 0.00 | 0.00 | 0.00 | 43 | 1009.7 |